Simultaneous Nadir Overpasses (SNOs) Predictions

Prediction of SNOs between GOES-15 and LANDSAT-8 Satellite Orbit:

Table of predicted SNOs for the next 14.0 days since TLE Epoch: 5/6/2023
Index Date Time (GOES-15) GOES-15 Lat,Lon LANDSAT-8 Lat,Lon Distance(km) Time Diff (sec)
1 05/06/2023 19:44:01 -0.23,-144.00 -0.33,-143.47 60.22 80
2 05/08/2023 19:31:51 -0.24,-144.93 -1.17,-140.56 497.24 80
3 05/09/2023 07:55:55 0.23,-145.17 0.09,-145.75 67.11 80
4 05/11/2023 07:41:05 0.24,-146.08 0.96,-142.84 368.75 80
5 05/11/2023 20:05:00 -0.24,-146.32 0.13,-148.00 191.74 80
6 05/13/2023 19:50:09 -0.25,-147.23 -0.71,-145.08 244.04 80
7 05/14/2023 08:14:13 0.24,-147.47 -0.36,-150.28 319.97 80
8 05/16/2023 07:59:21 0.24,-148.37 0.44,-147.35 115.60 80
9 05/16/2023 20:23:17 -0.23,-148.60 0.58,-152.52 445.33 80
10 05/18/2023 20:11:05 -0.24,-149.50 -0.24,-149.60 10.58 80
